{"data":{"norad_id":53204,"intl_designator":"2022-084R","name":"STARLINK-4410","alt_names":[],"object_type":"PAYLOAD","status":"ACTIVE","operator":null,"country":"US","launch_date":"2022-07-22","launch_site_code":"AFWTR","launch_vehicle":null,"mission":null,"orbit_class":"UNKNOWN","rcs_meters":null,"size_class":null,"mass_kg":null,"dimensions":null,"purposes":["comms"],"wikipedia_slug":null,"has_3d_model":false,"image_url":null,"decayed_at":null,"tle_current":{"epoch":"2026-05-25T06:00:02.000160Z","epoch_age_seconds":60421,"freshness":"FRESH","line1":"1 53204U 22084R   26145.25002315  .00000382  00000+0  19737-4 0  9999","line2":"2 53204  97.6005 205.9373 0001975  63.8974 182.2989 15.22291468  5689","mean_motion":15.22291468,"eccentricity":0.0001975,"inclination_deg":97.6005,"raan_deg":205.9373,"arg_perigee_deg":63.8974,"mean_anomaly_deg":182.2989,"bstar":1.9737e-5,"rev_number":568,"period_min":94.594237061046,"perigee_km":497.5724701811,"apogee_km":500.28891191906,"semimajor_km":6877.0676910501,"source":"CELESTRAK","updated_at":"2026-05-25T13:38:17.352400Z"}}}